Regional Weather Roundup
Issued by NWS

Home | Current Version | Previous Version | Graphics & Text | Print | Product List | Glossary On
Versions: 1 2 3 4 5 6 7 8 9 10 11 12 13 14 15 16 17 18 19 20 21 22 23 24 25 26 27 28 29 30 31 32 33 34 35 36 37 38 39 40 41 42 43 44 45 46 47 48 49 50
000
ASUS43 KFSD 292202
RWRSD

WEATHER ROUNDUP FOR SOUTH DAKOTA
NATIONAL WEATHER SERVICE SIOUX FALLS SD
400 PM CST THU JAN 29 2015

NOTE: "FAIR" INDICATES FEW OR NO CLOUDS BELOW 12,000 FEET WITH NO
SIGNIFICANT WEATHER AND/OR OBSTRUCTIONS TO VISIBILITY.


SDZ001>005-009-010-012>017-292300-
NORTHWEST AND NORTH CENTRAL SOUTH DAKOTA

CITY           SKY/WX    TMP DP  RH WIND       PRES   REMARKS
BUFFALO          N/A     43   5  20 CALM      30.31F
FAITH            N/A     41  13  31 N5        30.40F
MOBRIDGE       SUNNY     36  21  54 NE8       30.42F
$$

SDZ012>016-024>037-041>051-057-063-072>074-292300-
SOUTHWEST AND SOUTH CENTRAL SOUTH DAKOTA

CITY           SKY/WX    TMP DP  RH WIND       PRES   REMARKS
RAPID CTY ARPT SUNNY     47  13  25 VRB3      30.40F
PIERRE         SUNNY     39  21  48 NW8G18    30.44F
CUSTER         SUNNY     41  14  33 VRB5      30.34S
ELLSWORTH AFB  SUNNY     46  14  28 N5        30.39F
PHILIP         SUNNY     45  18  34 NW7       30.43F
PINE RIDGE     SUNNY     44   4  19 NW7       30.41F
WINNER         FAIR      42  21  43 NW12      30.46R
$$

SDZ004>011-016>023-039-040-292300-
NORTHEAST SOUTH DAKOTA

CITY           SKY/WX    TMP DP  RH WIND       PRES   REMARKS
ABERDEEN       CLOUDY    25  17  72 N17       30.51R WCI  12
WATERTOWN      CLOUDY    22  17  81 N20       30.44R WCI   7
$$

SDZ017-020-022-023-036>040-048>070-292300-
SOUTHEAST SOUTH DAKOTA

CITY           SKY/WX    TMP DP  RH WIND       PRES   REMARKS
SIOUX FALLS    CLOUDY    28  20  71 NW18      30.44R WCI  15
HURON          CLOUDY    28  19  69 N17       30.49R WCI  16
MITCHELL       CLOUDY    32  22  66 N20G26    30.49R WCI  20
YANKTON        MOSUNNY   34  21  60 NW17      30.47R WCI  23
$$

ABBREVIATIONS USED IN REMARKS
   TC - TEMPERATURE IN CELSIUS
  WCI - WIND CHILL INDEX
   HX - HEAT INDEX
  VSB - VISIBILITY




USA.gov is the U.S. government's official web portal to all federal, state and local government web resources and services.